{"data":{"norad_id":45544,"intl_designator":"2020-025P","name":"STARLINK-1373","alt_names":[],"object_type":"PAYLOAD","status":"ACTIVE","operator":null,"country":"US","launch_date":"2020-04-22","launch_site_code":"AFETR","launch_vehicle":null,"mission":null,"orbit_class":"UNKNOWN","rcs_meters":null,"size_class":null,"mass_kg":null,"dimensions":null,"purposes":["comms"],"wikipedia_slug":null,"has_3d_model":false,"image_url":null,"decayed_at":null,"tle_current":{"epoch":"2026-09-19T00:00:02.000160Z","epoch_age_seconds":143965,"freshness":"FRESH","line1":"1 45544U 20025P   26262.00002315  .00089452  00000+0  38647-3 0  9998","line2":"2 45544  53.0346 214.5566 0005331  64.4607 131.1744 15.84206321  6013","mean_motion":15.84206321,"eccentricity":0.0005331,"inclination_deg":53.0346,"raan_deg":214.5566,"arg_perigee_deg":64.4607,"mean_anomaly_deg":131.1744,"bstar":0.00038647,"rev_number":601,"period_min":90.897251255192,"perigee_km":314.99046725024,"apogee_km":322.13048609987,"semimajor_km":6696.6974766751,"source":"CELESTRAK","updated_at":"2026-09-20T09:00:38.446657Z"}}}